DW3003 Weather Reports


time (UTC)temp
C
wind
direction
speed
KPH
gust
KPH
rain 1hr
cm
rain 24hr
cm
rain mn
cm
humidity
%
barometer
mb
20260506183108 12 167 25.7 37.0 0.00 0.00 0.00 88 1010.0
20260506182557 12 145 24.1 38.6 0.00 0.00 0.00 88 1010.1
20260506182108 12 173 20.9 38.6 0.00 0.00 0.00 88 1010.1
20260506181559 12 169 22.5 38.6 0.00 0.00 0.00 87 1010.3
20260506181058 12 167 20.9 32.2 0.00 0.00 0.00 87 1010.3
20260506180558 12 146 20.9 32.2 0.00 0.00 0.00 87 1010.3
20260506180058 12 167 22.5 32.2 0.00 0.00 0.00 87 1010.2
20260506175558 12 160 19.3 37.0 0.00 0.00 0.00 87 1010.3
20260506175058 12 159 20.9 37.0 0.00 0.00 0.00 87 1010.5
20260506174607 12 159 19.3 41.8 0.00 0.00 0.00 87 1010.7
20260506174101 12 164 22.5 41.8 0.00 0.00 0.00 87 1010.9
20260506173558 12 165 22.5 41.8 0.00 0.00 0.00 86 1010.8
20260506173126 13 175 24.1 37.0 0.00 0.00 0.00 86 1011.0
20260506172557 13 186 25.7 38.6 0.00 0.00 0.00 85 1011.0
20260506172058 13 161 22.5 38.6 0.00 0.00 0.00 84 1011.1
20260506171601 13 173 24.1 37.0 0.00 0.00 0.00 84 1011.0
20260506171058 13 157 25.7 51.5 0.00 0.00 0.00 84 1010.9
20260506170559 13 166 29.0 51.5 0.00 0.00 0.00 85 1010.8
20260506170056 13 144 30.6 45.1 0.00 0.00 0.00 85 1010.9
20260506165557 13 172 32.2 45.1 0.00 0.00 0.00 85 1011.0
20260506165058 13 167 29.0 43.5 0.00 0.00 0.00 85 1010.9
20260506164558 13 154 29.0 43.5 0.00 0.00 0.00 84 1011.1
20260506164057 13 156 27.4 43.5 0.00 0.00 0.00 85 1011.2
20260506163558 13 149 29.0 43.5 0.00 0.00 0.00 85 1011.4
20260506163102 13 156 25.7 43.5 0.00 0.00 0.00 85 1011.4
20260506162559 13 156 27.4 38.6 0.00 0.00 0.00 85 1011.3
20260506162101 13 167 25.7 38.6 0.00 0.00 0.00 85 1011.4
20260506161609 13 198 25.7 40.2 0.00 0.00 0.00 85 1011.4
20260506161058 13 175 24.1 41.8 0.00 0.00 0.00 85 1011.5
20260506160558 13 164 25.7 41.8 0.00 0.00 0.00 84 1011.6
20260506160105 13 174 29.0 41.8 0.00 0.00 0.00 84 1011.7
20260506155558 13 167 27.4 41.8 0.00 0.00 0.00 83 1011.9
20260506155058 13 164 27.4 41.8 0.00 0.00 0.00 83 1012.1
20260506154601 13 152 25.7 38.6 0.00 0.00 0.00 82 1012.1
20260506154058 13 173 24.1 37.0 0.00 0.00 0.00 83 1012.2
20260506153558 13 166 25.7 40.2 0.00 0.00 0.00 83 1012.2
20260506153058 13 169 22.5 40.2 0.00 0.00 0.00 84 1012.1
20260506152557 13 152 22.5 35.4 0.00 0.00 0.00 84 1012.1
20260506152058 13 175 19.3 33.8 0.00 0.00 0.00 84 1012.1
20260506151640 13 165 17.7 29.0 0.00 0.00 0.00 84 1012.3
20260506151059 13 196 16.1 29.0 0.00 0.00 0.00 84 1012.3
20260506150601 13 182 17.7 30.6 0.00 0.00 0.00 84 1012.3
20260506150109 13 165 17.7 30.6 0.00 0.00 0.00 83 1012.3
20260506145559 13 178 17.7 32.2 0.00 0.00 0.00 83 1012.4
20260506145058 13 157 19.3 35.4 0.00 0.00 0.00 82 1012.3
20260506144614 14 201 17.7 35.4 0.00 0.00 0.00 82 1012.3
20260506144058 14 163 17.7 40.2 0.00 0.00 0.00 82 1012.3
20260506143559 14 162 19.3 40.2 0.00 0.00 0.00 83 1012.2
20260506143110 14 169 19.3 40.2 0.00 0.00 0.00 82 1012.3
20260506142557 14 179 19.3 40.2 0.00 0.00 0.00 83 1012.3
20260506142057 13 193 17.7 40.2 0.00 0.00 0.00 84 1012.4
20260506141609 13 179 17.7 37.0 0.00 0.00 0.00 83 1012.4
20260506141058 13 165 22.5 37.0 0.00 0.00 0.00 84 1012.4
20260506140559 13 163 20.9 32.2 0.00 0.00 0.00 84 1012.4
20260506140127 13 156 17.7 35.4 0.00 0.00 0.00 84 1012.3
20260506135559 13 155 19.3 35.4 0.00 0.00 0.00 84 1012.4
20260506135101 13 162 19.3 35.4 0.00 0.00 0.00 84 1012.4
20260506134603 13 153 17.7 30.6 0.00 0.00 0.00 84 1012.3
20260506134058 13 177 14.5 30.6 0.00 0.00 0.00 84 1012.4
20260506133558 13 160 14.5 29.0 0.00 0.00 0.00 84 1012.4
20260506133133 13 182 12.9 27.4 0.00 0.00 0.00 85 1012.4
20260506132558 13 181 17.7 27.4 0.00 0.00 0.00 85 1012.3
20260506132058 13 171 16.1 29.0 0.00 0.00 0.00 85 1012.4
20260506131558 13 169 17.7 29.0 0.00 0.00 0.00 85 1012.3
20260506131059 13 176 19.3 32.2 0.00 0.00 0.00 84 1012.4
20260506130558 13 196 17.7 32.2 0.00 0.00 0.00 84 1012.4
20260506130138 13 164 19.3 33.8 0.00 0.00 0.00 84 1012.5
20260506125558 13 160 16.1 37.0 0.00 0.00 0.00 85 1012.5
20260506125057 13 167 22.5 37.0 0.00 0.00 0.00 86 1012.5
20260506124556 13 161 24.1 37.0 0.00 0.00 0.00 85 1012.4
20260506124058 13 182 24.1 40.2 0.00 0.00 0.00 85 1012.5
20260506123558 13 157 20.9 40.2 0.00 0.00 0.00 85 1012.5
20260506123058 13 142 22.5 40.2 0.00 0.00 0.00 85 1012.5
20260506122559 13 175 19.3 37.0 0.00 0.00 0.00 86 1012.5
20260506122057 13 188 25.7 37.0 0.00 0.00 0.00 86 1012.4
20260506121600 12 151 22.5 35.4 0.00 0.00 0.00 86 1012.6
20260506121058 12 155 22.5 32.2 0.00 0.00 0.00 86 1012.4
20260506120600 12 181 17.7 32.2 0.00 0.00 0.00 86 1012.4
20260506120100 12 200 17.7 32.2 0.00 0.00 0.00 86 1012.4
20260506115557 12 173 16.1 30.6 0.00 0.00 0.00 86 1012.4
20260506115058 12 184 17.7 30.6 0.00 0.00 0.00 86 1012.4
20260506114601 12 186 14.5 24.1 0.00 0.00 0.00 86 1012.5
20260506114058 12 188 12.9 24.1 0.00 0.00 0.00 87 1012.7
20260506113557 12 181 9.7 20.9 0.00 0.00 0.00 87 1012.7
20260506113100 12 194 11.3 30.6 0.00 0.00 0.00 87 1012.7
20260506112559 12 200 8.0 30.6 0.00 0.00 0.00 87 1012.7
20260506112057 12 225 12.9 25.7 0.00 0.00 0.00 87 1012.7
20260506111601 12 179 12.9 20.9 0.00 0.00 0.00 87 1012.6
20260506111059 12 186 8.0 20.9 0.00 0.00 0.00 87 1012.6
20260506110558 12 157 12.9 22.5 0.00 0.00 0.00 87 1012.5
20260506110104 12 212 9.7 22.5 0.00 0.00 0.00 87 1012.5
20260506105558 12 169 8.0 22.5 0.00 0.00 0.00 87 1012.5
20260506105059 12 173 8.0 22.5 0.00 0.00 0.00 88 1012.6
20260506104605 12 193 11.3 24.1 0.00 0.00 0.00 88 1012.5
20260506104058 12 165 11.3 24.1 0.00 0.00 0.00 88 1012.5
20260506103558 12 179 9.7 29.0 0.00 0.00 0.00 88 1012.5
20260506103106 12 193 12.9 29.0 0.00 0.00 0.00 88 1012.4
20260506102558 12 203 11.3 27.4 0.00 0.00 0.00 88 1012.5
20260506102101 12 184 11.3 27.4 0.00 0.00 0.00 88 1012.4
20260506101600 12 169 16.1 27.4 0.00 0.00 0.00 88 1012.4
20260506101059 12 164 11.3 27.4 0.00 0.00 0.00 88 1012.3
20260506100557 12 180 12.9 27.4 0.00 0.00 0.00 88 1012.2
20260506100110 12 192 11.3 25.7 0.00 0.00 0.00 88 1012.3
20260506095558 12 189 14.5 25.7 0.00 0.00 0.00 88 1012.3
20260506095059 12 179 11.3 24.1 0.00 0.00 0.00 89 1012.2
20260506094606 12 193 12.9 20.9 0.00 0.00 0.00 89 1012.2
20260506094058 12 136 11.3 24.1 0.00 0.00 0.00 89 1012.2
20260506093558 12 145 12.9 24.1 0.00 0.00 0.00 89 1012.3
20260506093056 12 163 9.7 22.5 0.00 0.00 0.00 89 1012.4
20260506092558 12 175 4.8 19.3 0.00 0.00 0.00 89 1012.4
20260506092058 12 194 8.0 19.3 0.00 0.00 0.00 89 1012.5
20260506091608 12 204 6.4 16.1 0.00 0.00 0.00 89 1012.5
20260506091057 12 194 4.8 17.7 0.00 0.00 0.00 89 1012.5
20260506090557 12 185 6.4 17.7 0.00 0.00 0.00 89 1012.6
20260506090056 12 196 3.2 16.1 0.00 0.00 0.00 89 1012.7
20260506085557 12 180 4.8 20.9 0.00 0.00 0.00 89 1012.7
20260506085101 12 170 4.8 20.9 0.00 0.00 0.00 89 1012.7
20260506084600 12 206 3.2 16.1 0.00 0.00 0.00 89 1012.9
20260506084059 12 221 6.4 19.3 0.00 0.00 0.00 89 1012.9
20260506083558 12 177 3.2 19.3 0.00 0.00 0.00 89 1013.0
20260506083100 12 223 8.0 19.3 0.00 0.00 0.00 89 1013.0
20260506082558 12 224 6.4 19.3 0.00 0.00 0.00 88 1013.0
20260506082059 12 192 6.4 33.8 0.00 0.00 0.00 88 1013.0
20260506081608 12 196 11.3 33.8 0.00 0.00 0.00 88 1013.0
20260506081058 12 195 16.1 33.8 0.00 0.00 0.00 88 1013.0
20260506080558 12 169 16.1 30.6 0.00 0.00 0.00 88 1013.1
20260506073058 12 240 6.4 16.1 0.00 0.00 0.00 88 1013.2
20260506072557 12 206 4.8 16.1 0.00 0.00 0.00 87 1013.2
20260506072059 12 238 3.2 16.1 0.00 0.00 0.00 87 1013.1
20260506071557 12 184 6.4 16.1 0.00 0.00 0.00 87 1013.1
20260506071101 12 202 4.8 17.7 0.00 0.00 0.00 87 1013.0
20260506070558 12 197 4.8 17.7 0.00 0.00 0.00 87 1013.0
20260506062058 12 206 14.5 33.8 0.00 0.00 0.00 87 1012.9
20260506061556 12 177 16.1 32.2 0.00 0.00 0.00 87 1012.8
20260506061058 12 186 14.5 32.2 0.00 0.00 0.00 87 1012.9
20260506060557 12 152 14.5 32.2 0.00 0.00 0.00 87 1012.9
20260506051056 12 214 11.3 19.3 0.00 0.00 0.00 87 1013.4
20260506050556 12 192 8.0 20.9 0.00 0.00 0.00 87 1013.3
20260506045055 12 203 8.0 16.1 0.00 0.00 0.00 87 1013.5
20260506044603 12 0 1.6 19.3 0.00 0.00 0.00 87 1013.5
20260506044055 12 165 4.8 19.3 0.00 0.00 0.00 87 1013.5
20260506043556 12 177 8.0 19.3 0.00 0.00 0.00 87 1013.6
20260506043107 12 250 3.2 14.5 0.00 0.00 0.00 86 1013.5
20260506042556 12 250 6.4 19.3 0.00 0.00 0.00 86 1013.6
20260506042057 12 181 6.4 19.3 0.00 0.00 0.00 86 1013.6
20260506041606 12 173 8.0 19.3 0.00 0.00 0.00 86 1013.5
20260506041056 12 198 9.7 22.5 0.00 0.00 0.00 86 1013.6
20260506040556 12 167 11.3 22.5 0.00 0.00 0.00 86 1013.6
20260506040100 12 176 9.7 20.9 0.00 0.00 0.00 86 1013.5
20260506035556 12 181 8.0 22.5 0.00 0.00 0.00 86 1013.6
20260506035055 12 182 12.9 24.1 0.00 0.00 0.00 86 1013.6
20260506034614 12 187 11.3 24.1 0.00 0.00 0.00 86 1013.6
20260506034055 12 186 9.7 24.1 0.00 0.00 0.00 86 1013.6
20260506033555 12 168 9.7 24.1 0.00 0.00 0.00 86 1013.7
20260506033101 12 211 12.9 24.1 0.00 0.00 0.00 86 1013.7
20260506032556 12 210 9.7 22.5 0.00 0.00 0.00 86 1013.6
20260506032056 12 190 12.9 22.5 0.00 0.00 0.00 86 1013.6
20260506031604 12 191 11.3 20.9 0.00 0.00 0.00 85 1013.5
20260506031058 12 157 8.0 20.9 0.00 0.00 0.00 85 1013.6
20260506030556 12 209 9.7 19.3 0.00 0.00 0.00 85 1013.6
20260506030058 12 215 9.7 20.9 0.00 0.00 0.00 85 1013.6
20260506025557 12 203 9.7 20.9 0.00 0.00 0.00 85 1013.7
20260506025057 12 205 8.0 22.5 0.00 0.00 0.00 85 1013.6
20260506024559 12 213 8.0 22.5 0.00 0.00 0.00 85 1013.5
20260506024059 12 208 11.3 22.5 0.00 0.00 0.00 84 1013.6
20260506023558 12 181 9.7 27.4 0.00 0.00 0.00 84 1013.5
20260506023105 12 196 11.3 27.4 0.00 0.00 0.00 84 1013.6
20260506022558 12 188 9.7 22.5 0.00 0.00 0.00 84 1013.5
20260506022058 12 195 9.7 22.5 0.00 0.00 0.00 84 1013.5
20260506021557 12 202 11.3 25.7 0.00 0.00 0.00 84 1013.4
20260506021100 12 200 12.9 25.7 0.00 0.00 0.00 84 1013.4
20260506020557 12 184 12.9 24.1 0.00 0.00 0.00 84 1013.4
20260506020057 12 190 11.3 27.4 0.00 0.00 0.00 83 1013.3
20260506015558 12 172 14.5 27.4 0.00 0.00 0.00 83 1013.3
20260506015102 13 208 14.5 27.4 0.00 0.00 0.00 83 1013.2
20260506014557 13 178 16.1 37.0 0.00 0.00 0.00 82 1013.1
20260506014057 13 179 19.3 37.0 0.00 0.00 0.00 82 1013.1
20260506013558 13 198 22.5 37.0 0.00 0.00 0.00 82 1013.0
20260506013109 13 184 20.9 35.4 0.00 0.00 0.00 82 1012.9
20260506012559 13 179 17.7 38.6 0.00 0.00 0.00 82 1012.9
20260506012102 13 173 20.9 38.6 0.00 0.00 0.00 81 1012.9
20260506011600 13 176 24.1 38.6 0.00 0.00 0.00 81 1012.9
20260506011059 13 184 22.5 38.6 0.00 0.00 0.00 81 1012.7
20260506010559 13 161 22.5 38.6 0.00 0.00 0.00 81 1012.6
20260506010119 13 159 22.5 38.6 0.00 0.00 0.00 81 1012.5
20260506005558 13 182 20.9 38.6 0.00 0.00 0.00 81 1012.5
20260506005059 13 155 24.1 38.6 0.00 0.00 0.00 81 1012.4
20260506004602 13 192 24.1 38.6 0.00 0.00 0.00 80 1012.3
20260506004058 13 200 20.9 40.2 0.00 0.00 0.00 81 1012.2
20260506003558 13 184 20.9 40.2 0.00 0.00 0.00 80 1012.3
20260506003126 13 161 22.5 38.6 0.00 0.00 0.00 80 1012.2
20260506002557 13 181 24.1 40.2 0.00 0.00 0.00 80 1012.1
20260506002058 13 144 20.9 40.2 0.00 0.00 0.00 80 1012.0
20260506001615 13 165 24.1 40.2 0.00 0.00 0.00 79 1012.0
20260506001058 13 176 22.5 37.0 0.00 0.00 0.00 79 1012.1
20260506000559 13 165 19.3 35.4 0.00 0.00 0.00 80 1012.0
20260505235558 13 171 24.1 40.2 0.00 0.00 0.00 79 1011.8
20260505235057 13 175 24.1 40.2 0.00 0.00 0.00 79 1011.7
20260505234558 13 166 27.4 40.2 0.00 0.00 0.00 79 1011.5
20260505234100 13 194 25.7 41.8 0.00 0.00 0.00 79 1011.5
20260505233557 13 183 29.0 41.8 0.00 0.00 0.00 79 1011.4
20260505233123 13 176 27.4 40.2 0.00 0.00 0.00 79 1011.4
20260505232556 13 163 24.1 45.1 0.00 0.00 0.00 79 1011.2
20260505232056 13 172 25.7 45.1 0.00 0.00 0.00 79 1011.2
20260505231558 13 154 27.4 45.1 0.00 0.00 0.00 80 1011.1
20260505231055 13 192 24.1 45.1 0.00 0.00 0.00 80 1011.1
20260505230555 13 165 24.1 43.5 0.00 0.00 0.00 80 1011.1
20260505230059 13 194 25.7 43.5 0.00 0.00 0.00 80 1011.0
20260505225557 13 167 22.5 40.2 0.00 0.00 0.00 80 1011.1
20260505225057 13 160 25.7 40.2 0.00 0.00 0.00 80 1011.2
20260505224558 13 167 25.7 40.2 0.00 0.00 0.00 80 1011.1
20260505224056 13 194 20.9 41.8 0.00 0.00 0.00 80 1011.1
20260505223556 13 164 25.7 41.8 0.00 0.00 0.00 80 1011.0
20260505223058 13 156 24.1 43.5 0.00 0.00 0.00 80 1011.0
20260505222556 13 154 27.4 43.5 0.00 0.00 0.00 80 1011.0
20260505222056 13 204 24.1 40.2 0.00 0.00 0.00 80 1011.0
20260505221600 13 170 24.1 45.1 0.00 0.00 0.00 79 1011.0
20260505221056 13 185 24.1 45.1 0.00 0.00 0.00 80 1010.9
20260505220557 13 158 27.4 48.3 0.00 0.00 0.00 80 1010.9
20260505220100 13 164 27.4 48.3 0.00 0.00 0.00 80 1010.9
20260505215600 13 154 24.1 38.6 0.00 0.00 0.00 80 1010.9
20260505215056 13 191 20.9 46.7 0.00 0.00 0.00 80 1010.9
20260505214624 13 174 25.7 46.7 0.00 0.00 0.00 80 1010.8
20260505214056 13 195 25.7 38.6 0.00 0.00 0.00 80 1010.8
20260505213556 13 168 24.1 38.6 0.00 0.00 0.00 80 1010.8
20260505213102 13 161 24.1 45.1 0.00 0.00 0.00 80 1010.6
20260505212556 13 141 24.1 45.1 0.00 0.00 0.00 80 1010.6
20260505212058 13 151 22.5 45.1 0.00 0.00 0.00 79 1010.7
20260505211558 13 169 24.1 41.8 0.00 0.00 0.00 80 1010.8
20260505211057 13 178 27.4 40.2 0.00 0.00 0.00 80 1010.7
20260505210557 13 172 20.9 38.6 0.00 0.00 0.00 79 1010.7
20260505210101 13 178 14.5 38.6 0.00 0.00 0.00 80 1010.8
20260505205556 13 167 16.1 32.2 0.00 0.00 0.00 79 1010.7
20260505205057 13 160 17.7 35.4 0.00 0.00 0.00 79 1010.7
20260505204603 13 172 20.9 37.0 0.00 0.00 0.00 80 1010.7
20260505204056 13 177 20.9 37.0 0.00 0.00 0.00 80 1010.8
20260505203558 13 192 17.7 33.8 0.00 0.00 0.00 79 1010.8
20260505203103 13 187 20.9 33.8 0.00 0.00 0.00 80 1010.8
20260505202558 13 161 19.3 32.2 0.00 0.00 0.00 78 1010.8
20260505202058 13 180 17.7 32.2 0.00 0.00 0.00 79 1010.9
20260505201610 13 204 16.1 29.0 0.00 0.00 0.00 80 1010.8
20260505201057 13 181 19.3 29.0 0.00 0.00 0.00 79 1010.8
20260505200558 13 177 16.1 35.4 0.00 0.00 0.00 81 1011.0
20260505195557 13 159 19.3 35.4 0.00 0.00 0.00 81 1011.3
20260505195057 13 158 17.7 32.2 0.00 0.00 0.00 81 1011.4
20260505194558 13 180 19.3 32.2 0.00 0.00 0.00 81 1011.4
20260505194058 13 190 16.1 35.4 0.00 0.00 0.00 80 1011.5
20260505193558 13 171 22.5 35.4 0.00 0.00 0.00 80 1011.6
20260505193103 13 164 20.9 32.2 0.00 0.00 0.00 79 1011.6
20260505192558 13 192 24.1 37.0 0.00 0.00 0.00 81 1011.8
20260505192100 13 165 22.5 37.0 0.00 0.00 0.00 80 1011.8
20260505191606 13 150 20.9 35.4 0.00 0.00 0.00 80 1011.9
20260505191101 13 187 16.1 35.4 0.00 0.00 0.00 80 1012.1
20260505190558 13 191 16.1 30.6 0.00 0.00 0.00 81 1012.1
20260505185557 13 168 22.5 38.6 0.00 0.00 0.00 81 1012.3
20260505185058 13 189 22.5 38.6 0.00 0.00 0.00 81 1012.4
20260505184603 13 154 19.3 32.2 0.00 0.00 0.00 80 1012.3
20260505184058 13 199 19.3 30.6 0.00 0.00 0.00 81 1012.4
20260505183557 13 194 16.1 32.2 0.00 0.00 0.00 82 1012.5
20260505183124 13 159 19.3 37.0 0.00 0.00 0.00 83 1012.5